Weather History for Lihue, HI

Change the Weather History Date:

Saturday, March 3, 2012

  Actual Average Record
Temperature  
Mean Temperature 73 °F 72 °F  
Max Temperature 78 °F 78 °F 84 °F (1986)
Min Temperature 67 °F 66 °F 58 °F (1950)
Degree Days  
Heating Degree Days 0 0  
Month to date heating degree days 0 0  
Since 1 July heating degree days 0 0  
Cooling Degree Days 8 7  
Month to date cooling degree days 28 21  
Year to date cooling degree days 528 416  
Growing Degree Days 22 (Base 50)    
Moisture  
Dew Point 66 °F    
Average Humidity 86    
Maximum Humidity 93    
Minimum Humidity 79    
Precipitation  
Precipitation 0.46 in 0.14 in 2.80 in (2011)
Month to date precipitation 0.53 0.43  
Year to date precipitation 13.74 7.34  
Snow  
Snow 0.00 in - - ()
Month to date snowfall 0.0  
Since 1 July snowfall 0.0  
Snow Depth 0.00 in    
Sea Level Pressure  
Sea Level Pressure 30.03 in    
Wind  
Wind Speed 7 mph (ENE)    
Max Wind Speed 21 mph    
Max Gust Speed 25 mph    
Visibility 9 miles    
Events Rain , Thunderstorm    
T = Trace of Precipitation, MM = Missing Value Source: NWS Daily Summary

Daily Weather History Graph

Daily Weather History Graph

Search for Another Location

Airport:

Trip Planner

Search our weather history database for the weather conditions in past years. The results will help you decide how hot, cold, wet, or windy it might be!

Date:

Astronomy

Mar. 03, 2012 Rise Set
Actual Time 6:56 AM HST 6:42 PM HST
Civil Twilight 6:33 AM HST 7:04 PM HST
Nautical Twilight 6:07 AM HST 7:30 PM HST
Astronomical Twilight 5:41 AM HST 7:56 PM HST
Moon 2:31 PM HST (3/3) 3:13 AM HST (3/3)
Length of Visible Light 12h 31m
Length of Day
11h 46m
Waxing Gibbous, 77% of the Moon is Illuminated
Mar 3
Waxing Gibbous
Mar 7
Full
Mar 14
Last Quarter
Mar 22
New
Mar 30
First Quarter

Hourly Weather History & Observations

Time (HST) Temp. Dew Point Humidity Pressure Visibility Wind Dir Wind Speed Gust Speed Precip Events Conditions
12:53 AM 69.1 °F 66.0 °F 90% 30.07 in 10.0 mi Calm Calm - N/A   Mostly Cloudy
1:34 AM 69.8 °F 66.2 °F 88% 30.06 in 10.0 mi SW 3.5 mph - N/A   Mostly Cloudy
1:43 AM 69.8 °F 66.2 °F 88% 30.06 in 10.0 mi WNW 4.6 mph - N/A   Mostly Cloudy
1:53 AM 69.1 °F 66.0 °F 90% 30.05 in 10.0 mi Calm Calm - N/A   Scattered Clouds
2:20 AM 69.8 °F 66.2 °F 88% 30.04 in 10.0 mi Calm Calm - N/A   Mostly Cloudy
2:53 AM 69.1 °F 66.0 °F 90% 30.03 in 10.0 mi West 3.5 mph - N/A   Mostly Cloudy
3:53 AM 69.1 °F 66.0 °F 90% 30.01 in 10.0 mi WNW 5.8 mph - N/A   Mostly Cloudy
4:41 AM 68.0 °F 64.4 °F 88% 30.02 in 10.0 mi West 5.8 mph - N/A   Mostly Cloudy
4:53 AM 68.0 °F 64.9 °F 90% 30.01 in 10.0 mi West 6.9 mph - N/A   Scattered Clouds
5:53 AM 68.0 °F 66.0 °F 93% 30.02 in 10.0 mi WNW 4.6 mph - N/A   Mostly Cloudy
6:12 AM 68.0 °F 66.2 °F 94% 30.03 in 10.0 mi West 6.9 mph - N/A   Mostly Cloudy
6:36 AM 68.0 °F 66.2 °F 94% 30.03 in 10.0 mi West 4.6 mph - N/A   Overcast
6:46 AM 68.0 °F 66.2 °F 94% 30.04 in 10.0 mi WNW 6.9 mph - N/A   Mostly Cloudy
6:53 AM 68.0 °F 64.9 °F 90% 30.04 in 10.0 mi WNW 5.8 mph - N/A   Scattered Clouds
6:54 AM 68.0 °F 64.4 °F 88% 30.04 in 10.0 mi WNW 5.8 mph - N/A   Mostly Cloudy
7:49 AM 68.0 °F 64.4 °F 88% 30.06 in 8.0 mi Calm Calm - 0.03 in Rain Light Rain
7:53 AM 69.1 °F 66.0 °F 90% 30.06 in 8.0 mi Calm Calm - 0.03 in Rain Light Rain
8:53 AM 70.0 °F 66.9 °F 90% 30.09 in 8.0 mi WSW 8.1 mph - 0.39 in   Overcast
9:53 AM 71.1 °F 66.9 °F 87% 30.08 in 8.0 mi Calm Calm - 0.01 in Rain Light Rain
10:53 AM 73.0 °F 66.9 °F 81% 30.07 in 4.0 mi East 15.0 mph - 0.03 in   Haze
11:00 AM 73.4 °F 66.2 °F 78% 30.08 in 10.0 mi East 13.8 mph - N/A   Overcast
11:28 AM 73.4 °F 68.0 °F 83% 30.07 in 10.0 mi East 17.3 mph - N/A   Mostly Cloudy
11:53 AM 73.0 °F 68.0 °F 84% 30.06 in 10.0 mi East 16.1 mph - N/A   Mostly Cloudy
12:53 PM 73.9 °F 66.9 °F 79% 30.02 in 8.0 mi ENE 20.7 mph 24.2 mph N/A   Mostly Cloudy
1:53 PM 73.0 °F 66.9 °F 81% 30.00 in 10.0 mi East 16.1 mph - 0.00 in   Overcast
2:53 PM 75.0 °F 68.0 °F 79% 29.98 in 10.0 mi ENE 12.7 mph 21.9 mph N/A   Overcast
3:32 PM 75.2 °F 66.2 °F 73% 29.97 in 10.0 mi East 12.7 mph - N/A   Overcast
3:53 PM 75.0 °F 66.0 °F 73% 29.96 in 10.0 mi East 13.8 mph - N/A   Overcast
4:53 PM 73.9 °F 66.9 °F 79% 29.96 in 10.0 mi East 17.3 mph - N/A   Overcast
5:00 PM 73.4 °F 68.0 °F 83% 29.97 in 9.0 mi East 13.8 mph - N/A   Overcast
5:43 PM 73.4 °F 66.2 °F 78% 29.97 in 10.0 mi East 18.4 mph - N/A   Overcast
5:53 PM 73.0 °F 66.0 °F 79% 29.97 in 10.0 mi ENE 18.4 mph - N/A   Mostly Cloudy
6:53 PM 72.0 °F 66.0 °F 81% 29.98 in 10.0 mi ESE 15.0 mph 20.7 mph N/A   Overcast
7:27 PM 73.4 °F 66.2 °F 78% 30.00 in 10.0 mi East 18.4 mph - N/A Rain Light Rain
7:37 PM 71.6 °F 66.2 °F 83% 30.00 in 9.0 mi East 18.4 mph - N/A Rain , Thunderstorm Light Thunderstorms and Rain
7:53 PM 73.0 °F 66.9 °F 81% 30.00 in 7.0 mi East 17.3 mph - N/A Rain , Thunderstorm Light Thunderstorms and Rain
8:01 PM 71.6 °F 66.2 °F 83% 30.02 in 9.0 mi East 12.7 mph 21.9 mph 0.01 in Rain , Thunderstorm Light Thunderstorms and Rain
8:05 PM 73.4 °F 66.2 °F 78% 30.02 in 10.0 mi East 15.0 mph - 0.01 in Rain , Thunderstorm Light Thunderstorms and Rain
8:50 PM 71.6 °F 66.2 °F 83% 30.03 in 2.5 mi East 15.0 mph - 0.13 in Rain , Thunderstorm Heavy Thunderstorms and Rain
8:53 PM 71.1 °F 66.9 °F 87% 30.02 in 3.0 mi East 15.0 mph - 0.15 in Rain , Thunderstorm Thunderstorms and Rain
9:11 PM 71.6 °F 66.2 °F 83% 30.03 in 6.0 mi East 13.8 mph - 0.03 in Rain , Thunderstorm Thunderstorms and Rain
9:36 PM 71.6 °F 66.2 °F 83% 30.03 in 8.0 mi East 15.0 mph - N/A Rain Light Rain
9:53 PM 72.0 °F 66.9 °F 84% 30.03 in 8.0 mi ENE 15.0 mph - 0.06 in Rain Light Rain
10:23 PM 71.6 °F 68.0 °F 88% 30.03 in 9.0 mi East 10.4 mph - 0.13 in Rain Light Rain
10:53 PM 72.0 °F 66.9 °F 84% 30.03 in 10.0 mi East 10.4 mph - 0.13 in   Mostly Cloudy
11:53 PM 73.0 °F 64.9 °F 76% 30.01 in 10.0 mi East 12.7 mph - N/A   Overcast